Wind_Speed
10 10 10 10 11 11 12 12 12 13 13 13 12 12 13 13 14 15 15 15 15 15 15 15 15 15 15 16 16 16 17 17 17 17 18 19 20 20 20 20 20 20 19
12 12 12 12 12 12 12 13 14 14 14 14 15 15 15 15 16 16 16 16 16 16 16 16 16 16 17 17 18 18 19 19 19 20 20 20 21 22 21 21 21 21 21
14 14 14 14 14 14 14 15 15 16 16 17 17 17 17 17 17 17 18 17 17 17 17 17 18 18 18 19 20 20 20 21 21 21 22 22 22 22 22 22 22 22 21
17 16 17 16 16 16 17 17 17 18 18 18 18 19 19 19 19 19 20 19 19 19 19 19 19 19 20 20 20 21 22 22 23 23 23 23 23 23 22 22 22 22 22
19 19 19 19 19 19 19 19 19 20 20 20 20 20 21 21 21 22 22 22 21 21 21 21 21 22 22 22 22 22 23 23 24 24 24 24 24 24 23 22 22 22 23
20 20 20 21 22 21 21 21 21 21 21 22 22 22 22 23 24 24 24 24 23 23 23 23 23 24 24 24 24 24 24 25 25 25 24 24 24 24 23 23 23 23 23
21 22 22 22 23 23 23 23 23 23 22 23 24 24 25 25 25 26 26 25 25 25 25 25 25 24 25 25 25 25 25 25 26 26 25 24 24 24 24 24 24 24 24
24 24 24 25 25 24 24 25 25 25 25 25 25 26 26 26 26 27 27 28 27 26 26 26 25 25 26 26 26 26 26 27 27 26 26 25 24 24 24 24 24 25 25
26 26 26 26 26 26 26 26 26 26 27 27 26 26 27 27 28 29 29 29 29 28 27 27 26 26 26 27 27 27 26 26 26 26 25 24 24 25 25 25 25 25 26
27 27 27 28 27 27 27 27 27 28 27 28 28 28 28 29 29 29 30 30 30 29 28 28 28 27 27 28 27 26 25 25 25 25 25 25 24 24 25 25 25 25 26
28 28 28 28 28 28 28 28 29 29 29 30 30 30 30 30 30 30 30 31 31 30 29 28 28 28 28 28 27 27 26 25 25 25 25 25 25 25 25 25 26 26 26
29 29 29 29 29 30 30 30 31 31 31 31 31 30 31 31 31 31 30 31 30 30 30 29 29 29 29 28 28 27 26 25 25 25 25 25 25 25 25 25 26 26 26
30 30 29 29 30 31 31 31 32 32 33 32 31 31 30 30 31 31 31 31 31 31 30 30 30 30 30 29 27 27 26 26 26 26 26 25 26 26 26 27 27 27 27
31 31 31 30 30 31 31 31 31 32 32 32 32 31 30 30 30 31 31 31 31 31 30 30 30 30 29 28 27 26 26 26 26 26 26 26 26 26 27 27 28 28 28
32 31 31 31 31 31 31 32 32 32 32 32 31 31 31 31 31 31 31 31 31 30 30 30 30 29 29 28 27 26 27 27 27 27 27 27 27 27 27 28 28 28 27
32 32 32 32 31 31 31 31 31 31 32 32 33 33 33 33 33 34 34 34 33 32 31 30 29 28 28 27 27 27 27 27 27 27 27 28 28 28 28 28 28 28 27
32 32 32 32 32 31 31 30 30 30 31 32 33 34 35 35 34 34 34 33 32 31 30 29 29 28 27 27 27 27 27 27 27 28 28 28 28 28 28 28 27 28 27
32 33 33 32 32 31 31 30 30 30 31 32 32 32 33 33 33 33 32 31 30 29 28 28 27 26 26 27 27 27 27 27 28 28 28 28 28 27 27 26 26 26 26
33 33 33 33 32 31 30 30 31 31 31 31 31 31 31 31 32 31 30 29 28 27 26 25 25 25 25 26 26 26 26 27 27 27 27 27 27 27 26 26 26 25 25
33 32 32 32 31 31 31 31 31 30 30 30 30 30 29 29 29 29 28 28 27 25 25 25 25 25 25 25 25 26 26 26 26 26 25 25 25 26 26 26 26 25 25
32 32 32 31 31 31 31 31 31 30 29 29 29 29 28 28 28 27 27 27 26 25 25 26 26 26 26 26 25 25 25 25 24 24 24 24 25 25 25 26 26 26 26
31 31 31 31 31 31 31 30 30 30 29 29 28 27 27 27 27 26 26 26 26 26 26 26 26 26 26 26 25 24 24 24 24 25 25 25 25 26 26 26 26 25 25
30 30 31 31 31 31 31 31 30 30 30 29 29 27 27 27 26 26 26 26 26 26 26 26 26 25 25 24 24 23 23 24 25 26 26 26 26 26 26 26 26 25 25
29 29 30 30 30 30 30 30 30 30 29 28 28 28 27 27 27 27 26 26 26 25 24 25 25 24 24 24 24 24 24 25 26 27 26 27 27 27 26 26 26 25 25
29 29 29 29 29 29 29 29 29 28 28 28 28 28 27 27 27 26 26 26 26 26 26 26 25 25 25 25 26 26 26 26 26 27 27 27 27 27 26 26 26 26 25
30 29 29 28 28 28 28 28 28 27 27 27 28 28 27 27 26 26 26 26 25 25 26 26 27 27 27 27 27 27 26 26 27 27 27 27 27 27 26 26 27 27 26
Wind_Direction
311 309 312 311 310 309 311 312 315 317 317 318 317 316 316 316 319 320 321 321 321 316 313 309 306 302 301 301 302 302 303 303 302 300 299 298 298 297 297 295 294 293 293
310 310 312 310 309 305 304 306 309 310 313 314 315 313 313 311 311 314 317 317 317 315 311 307 302 301 300 300 300 301 301 301 301 299 299 298 298 297 295 292 291 290 291
308 305 303 301 302 301 297 299 301 302 304 305 306 308 307 306 307 308 309 312 312 311 307 305 302 300 299 298 297 297 299 299 298 297 296 296 296 296 295 292 290 291 289
305 303 299 296 294 295 295 295 295 297 300 303 303 303 303 302 303 305 306 308 308 309 306 303 303 300 299 297 295 295 296 297 297 296 294 294 294 293 293 292 291 292 290
301 299 296 292 291 290 289 291 293 294 295 297 299 301 300 299 300 301 302 303 304 304 304 303 301 301 300 297 296 296 296 297 296 295 293 293 293 293 293 291 291 291 291
298 296 294 293 293 291 289 290 292 294 293 293 294 297 297 297 299 299 300 301 300 300 300 300 300 300 299 297 296 296 296 296 295 294 292 292 291 291 291 291 291 290 290
295 294 293 291 290 290 289 289 289 290 294 293 291 292 293 295 296 297 300 299 299 299 299 298 299 300 300 299 296 295 296 296 296 295 293 292 292 291 291 291 291 291 291
294 293 291 290 289 287 287 288 287 289 291 292 292 292 292 293 294 296 299 299 298 297 296 297 298 298 297 297 297 295 295 295 295 295 294 293 292 292 290 290 289 289 290
292 292 291 289 287 286 286 286 286 288 290 291 291 291 292 291 292 294 295 297 297 297 296 295 295 296 297 296 296 296 294 294 294 294 294 293 293 294 294 292 291 291 292
291 291 291 290 287 285 284 284 284 285 287 288 289 289 291 292 291 292 293 295 297 297 296 294 293 293 294 296 294 295 293 292 293 294 293 293 294 294 296 294 294 294 294
290 290 290 288 287 285 283 283 283 284 285 286 287 288 289 291 292 292 293 294 295 297 294 292 292 293 293 294 293 293 292 290 290 292 293 292 293 293 295 295 294 294 295
290 291 289 287 285 284 283 283 283 283 284 285 286 288 290 290 291 291 292 294 296 296 294 292 292 293 294 294 292 290 289 289 289 291 292 291 291 291 292 293 293 293 293
290 289 288 287 285 284 284 283 284 283 282 283 286 288 289 290 292 293 294 294 293 294 294 293 292 292 292 292 290 288 288 288 288 289 290 291 292 292 291 291 292 291 292
289 289 286 286 286 285 284 283 284 284 283 283 285 288 289 290 290 290 292 293 292 292 293 292 291 291 291 289 289 288 289 289 289 288 289 291 292 292 291 291 291 290 291
288 289 287 285 286 287 286 285 284 284 284 286 287 287 287 288 289 290 291 291 291 291 291 292 292 292 291 289 287 287 288 289 289 289 290 291 292 292 292 291 291 291 291
287 288 287 287 286 286 286 285 285 285 285 285 286 286 286 287 288 290 291 292 291 290 291 289 288 288 289 288 286 286 287 288 289 289 289 289 290 291 291 291 291 291 291
288 288 287 287 287 286 286 285 286 287 287 286 286 287 288 289 289 289 290 291 292 290 290 289 287 286 286 286 286 287 288 288 289 289 288 288 288 289 289 290 290 290 290
288 287 286 286 286 287 288 288 289 291 290 289 289 290 290 289 289 290 290 290 290 291 291 290 288 287 287 287 288 287 288 288 289 289 288 288 289 289 290 290 290 291 291
287 286 284 284 285 287 288 288 289 291 291 291 292 293 293 291 290 290 291 289 290 290 290 289 290 289 288 289 289 289 289 289 289 290 290 290 290 290 291 290 289 290 291
286 285 284 283 285 286 287 287 288 289 290 291 293 293 293 293 292 290 289 290 290 289 290 291 291 290 290 289 289 289 288 288 288 289 291 292 293 292 291 290 289 290 291
286 286 286 285 286 287 287 288 288 288 289 290 291 293 293 292 291 292 291 290 290 291 292 292 292 292 291 290 289 288 288 288 289 290 289 291 293 293 292 291 291 292 291
287 287 286 286 287 287 287 287 287 287 287 289 290 291 291 291 292 292 292 293 293 291 292 293 293 292 291 289 288 287 288 288 288 290 291 292 293 293 292 292 292 292 292
285 285 286 286 287 287 285 286 287 286 287 288 289 288 288 290 292 291 293 294 295 295 293 292 293 293 291 290 288 287 287 287 288 288 288 289 291 292 292 291 292 292 291
286 287 287 286 286 286 286 285 286 286 287 288 288 287 287 289 290 290 291 292 293 292 293 292 290 289 288 288 288 288 288 288 289 289 290 290 290 290 289 288 289 289 289
289 288 288 287 286 287 286 285 284 284 285 286 287 287 288 289 289 289 289 290 290 290 289 289 289 288 288 288 288 289 290 290 291 290 290 290 290 290 289 287 287 287 287
289 288 287 287 286 287 286 285 286 287 288 287 288 289 290 291 290 289 288 288 288 288 288 289 289 289 289 289 289 290 291 291 291 290 290 291 290 290 289 288 287 286 285
Height
5896 5894 5893 5891 5890 5889 5887 5885 5884 5882 5880 5878 5876 5874 5872 5870 5867 5865 5863 5860 5858 5855 5853 5851 5848 5846 5844 5842 5839 5837 5835 5833 5831 5829 5826 5824 5821 5819 5817 5815 5813 5810 5808
5893 5891 5889 5888 5887 5885 5884 5882 5881 5879 5877 5875 5873 5871 5869 5867 5864 5862 5860 5857 5854 5852 5849 5847 5844 5842 5840 5837 5835 5833 5830 5828 5826 5823 5821 5818 5816 5813 5811 5809 5807 5805 5803
5889 5887 5885 5884 5883 5881 5880 5878 5877 5875 5873 5871 5869 5867 5865 5863 5860 5858 5856 5853 5850 5848 5845 5843 5840 5837 5835 5832 5830 5828 5825 5823 5820 5818 5815 5813 5810 5807 5805 5803 5801 5798 5796
5885 5882 5880 5879 5878 5877 5876 5874 5872 5870 5868 5867 5865 5862 5860 5858 5856 5853 5851 5849 5846 5843 5840 5838 5835 5832 5829 5827 5824 5822 5819 5816 5814 5812 5809 5807 5804 5801 5799 5796 5794 5792 5789
5880 5879 5877 5875 5874 5872 5871 5869 5867 5865 5863 5861 5859 5857 5855 5853 5851 5848 5846 5843 5841 5838 5835 5832 5830 5827 5824 5821 5818 5816 5813 5810 5807 5805 5802 5800 5797 5795 5792 5790 5787 5785 5783
5875 5873 5872 5870 5868 5866 5865 5863 5861 5859 5858 5856 5853 5851 5849 5847 5845 5842 5840 5837 5835 5832 5829 5827 5824 5821 5818 5815 5812 5809 5806 5803 5801 5798 5795 5792 5790 5787 5785 5783 5780 5778 5776
5869 5868 5866 5864 5862 5860 5858 5857 5855 5853 5851 5849 5847 5845 5843 5840 5838 5835 5833 5830 5828 5825 5823 5820 5817 5814 5811 5808 5805 5802 5799 5796 5794 5791 5788 5785 5783 5780 5778 5776 5773 5771 5769
5863 5861 5859 5858 5856 5854 5852 5850 5849 5847 5845 5843 5840 5838 5836 5834 5831 5829 5826 5823 5821 5818 5816 5813 5810 5807 5804 5801 5798 5795 5792 5789 5786 5783 5780 5778 5776 5773 5771 5768 5766 5764 5761
5857 5855 5853 5851 5848 5846 5845 5843 5841 5840 5838 5835 5833 5831 5829 5826 5824 5821 5819 5816 5813 5811 5808 5805 5803 5800 5797 5794 5791 5788 5785 5781 5778 5775 5773 5770 5768 5766 5763 5761 5758 5756 5754
5849 5847 5845 5843 5841 5839 5837 5835 5834 5832 5830 5828 5825 5823 5821 5819 5816 5814 5811 5808 5805 5802 5800 5797 5794 5792 5789 5785 5782 5779 5777 5774 5771 5768 5765 5763 5761 5758 5756 5754 5751 5749 5746
5841 5839 5837 5835 5833 5831 5829 5827 5826 5823 5821 5819 5817 5815 5812 5810 5808 5805 5803 5800 5797 5794 5791 5788 5786 5783 5780 5777 5774 5771 5769 5766 5763 5761 5758 5756 5754 5751 5749 5746 5744 5741 5739
5833 5831 5829 5827 5824 5822 5821 5819 5817 5815 5812 5810 5808 5806 5804 5801 5799 5796 5794 5791 5789 5786 5783 5780 5777 5774 5771 5768 5765 5762 5760 5758 5756 5753 5751 5749 5747 5744 5741 5739 5736 5734 5731
5824 5822 5820 5818 5815 5813 5811 5809 5807 5805 5803 5801 5799 5797 5795 5792 5790 5787 5785 5782 5779 5777 5774 5771 5768 5765 5762 5760 5757 5754 5752 5750 5748 5746 5743 5741 5739 5736 5734 5731 5729 5726 5723
5815 5813 5811 5809 5807 5804 5802 5800 5797 5795 5793 5791 5790 5788 5786 5784 5780 5777 5775 5773 5770 5767 5765 5762 5759 5756 5753 5751 5749 5747 5745 5742 5740 5738 5735 5733 5731 5729 5726 5724 5721 5719 5716
5806 5804 5802 5799 5797 5795 5793 5791 5788 5786 5784 5782 5781 5779 5777 5775 5772 5769 5766 5763 5761 5758 5756 5753 5750 5747 5745 5743 5741 5739 5737 5735 5733 5730 5728 5726 5723 5721 5718 5716 5713 5711 5708
5796 5794 5792 5790 5788 5786 5783 5781 5779 5777 5775 5773 5771 5769 5767 5765 5762 5760 5757 5754 5751 5749 5746 5743 5741 5739 5737 5735 5733 5731 5729 5727 5725 5722 5720 5718 5715 5713 5710 5708 5705 5703 5700
5787 5785 5783 5781 5778 5776 5774 5772 5770 5768 5765 5763 5761 5759 5757 5755 5752 5750 5747 5745 5741 5738 5736 5734 5732 5730 5728 5726 5725 5723 5721 5719 5717 5714 5712 5709 5707 5705 5702 5700 5697 5695 5692
5778 5776 5774 5771 5769 5767 5765 5763 5761 5759 5756 5754 5751 5749 5747 5745 5743 5740 5738 5735 5732 5730 5727 5725 5723 5721 5720 5718 5716 5715 5713 5711 5708 5706 5703 5701 5699 5696 5694 5692 5690 5687 5685
5769 5766 5764 5762 5760 5758 5756 5754 5752 5749 5747 5744 5742 5740 5738 5735 5733 5730 5728 5726 5724 5722 5720 5718 5715 5713 5711 5710 5708 5706 5704 5702 5700 5698 5695 5693 5691 5689 5687 5684 5682 5679 5677
5759 5757 5754 5752 5750 5748 5747 5745 5742 5740 5738 5736 5733 5731 5729 5726 5724 5721 5719 5717 5715 5714 5712 5710 5708 5706 5703 5701 5700 5698 5696 5694 5692 5690 5688 5686 5683 5681 5679 5677 5674 5672 5670
5750 5747 5745 5743 5741 5739 5737 5736 5733 5731 5729 5727 5725 5722 5720 5718 5716 5714 5711 5709 5707 5706 5704 5702 5700 5698 5696 5693 5692 5690 5688 5686 5684 5683 5680 5678 5676 5674 5672 5669 5667 5665 5663
5740 5738 5736 5734 5732 5730 5728 5726 5724 5722 5720 5718 5716 5714 5712 5710 5708 5706 5704 5702 5700 5698 5696 5694 5692 5690 5688 5686 5684 5682 5681 5679 5677 5675 5673 5671 5669 5666 5664 5662 5659 5657 5655
5731 5729 5727 5725 5723 5721 5719 5717 5715 5713 5711 5709 5707 5705 5704 5702 5700 5698 5696 5694 5692 5690 5688 5686 5684 5682 5680 5679 5677 5675 5673 5672 5670 5668 5665 5663 5661 5658 5656 5654 5652 5650 5648
5722 5720 5718 5716 5714 5712 5710 5708 5706 5704 5703 5701 5699 5697 5695 5694 5692 5690 5688 5686 5684 5682 5680 5678 5677 5675 5673 5671 5669 5667 5665 5664 5662 5659 5657 5655 5653 5650 5648 5645 5644 5642 5640
5713 5711 5709 5707 5705 5703 5701 5699 5697 5696 5694 5693 5691 5688 5687 5685 5683 5682 5680 5678 5676 5674 5672 5671 5669 5667 5665 5663 5661 5659 5657 5655 5653 5650 5648 5646 5644 5642 5639 5637 5635 5634 5632
5704 5701 5699 5697 5695 5694 5692 5691 5689 5687 5685 5684 5682 5680 5678 5676 5674 5673 5671 5669 5667 5665 5664 5662 5660 5659 5657 5655 5653 5650 5648 5646 5644 5642 5640 5637 5635 5633 5631 5629 5627 5625 5624